Tanana, AK

5:02 PM AKDT on July 22, 2017 (GMT -0800)
Calhoun Memorial

Weather History for PATA - November, 2012

Change the Weather History Date:

Monday, November 12, 2012

  Actual Average Record
Temperature  
Mean Temperature -13 °F -  
Max Temperature -6 °F 12 °F 37 °F (1965)
Min Temperature -20 °F 1 °F -34 °F (1956)
Degree Days  
Heating Degree Days 78    
Moisture  
Dew Point -20 °F    
Average Humidity 76    
Maximum Humidity 82    
Minimum Humidity 70    
Precipitation  
Precipitation 0.00 in - - ()
Snow  
Snow 0.00 in - - ()
Snow Depth 4.00 in    
Sea Level Pressure  
Sea Level Pressure 30.26 in    
Wind  
Wind Speed 1 mph (WNW)    
Max Wind Speed 5 mph    
Max Gust Speed -    
Visibility 10 miles    
Events      
Averages and records for this station are not official NWS values.
T = Trace of Precipitation, MM = Missing Value Source: NWS Daily Summary

Daily Weather History Graph

Daily Weather History Graph

Search for Another Location

Airport or City:

Trip Planner

Search our weather history database for the weather conditions in past years. The results will help you decide how hot, cold, wet, or windy it might be!

Date:

Astronomy

Nov. 12, 2012 Rise Set
Actual Time 9:38 AM AKST 4:05 PM AKST
Civil Twilight 8:36 AM AKST 5:07 PM AKST
Nautical Twilight 7:33 AM AKST 6:10 PM AKST
Astronomical Twilight 6:35 AM AKST 7:08 PM AKST
Moon 8:00 AM AKST (11/12) 3:27 PM AKST (11/12)
Length of Visible Light 8h 31m
Length of Day
6h 26m
Waning Crescent, 2% of the Moon is Illuminated
Nov 12
Waning Crescent
Nov 13
New
Nov 20
First Quarter
Nov 28
Full
Dec 6
Last Quarter

Hourly Weather History & Observations

Time (AKST) Temp. Windchill Dew Point Humidity Pressure Visibility Wind Dir Wind Speed Gust Speed Precip Events Conditions
12:52 AM -11.9 °F - -17.0 °F 78% 30.14 in 10.0 mi Calm Calm - N/A   Clear
1:52 AM -11.9 °F -21.5 °F -17.0 °F 78% 30.16 in 10.0 mi NNW 3.5 mph - N/A   Clear
2:52 AM -11.9 °F -23.8 °F -17.0 °F 78% 30.18 in 10.0 mi West 4.6 mph - N/A   Clear
3:52 AM -16.1 °F - -20.9 °F 79% 30.19 in 10.0 mi Calm Calm - N/A   Clear
4:52 AM -13.0 °F -22.7 °F -20.0 °F 71% 30.19 in 10.0 mi WSW 3.5 mph - N/A   Clear
5:52 AM -14.1 °F - -18.9 °F 79% 30.20 in 10.0 mi Calm Calm - N/A   Clear
6:52 AM -16.1 °F - -22.0 °F 74% 30.22 in 10.0 mi Calm Calm - N/A   Clear
7:52 AM -16.1 °F - -20.0 °F 82% 30.24 in 10.0 mi Calm Calm - N/A   Clear
8:52 AM -17.0 °F - -22.0 °F 78% 30.26 in 10.0 mi Calm Calm - N/A   Clear
9:52 AM -17.0 °F - -22.0 °F 78% 30.27 in 10.0 mi Calm Calm - N/A   Clear
10:52 AM -15.0 °F -25.0 °F -20.0 °F 78% 30.28 in 10.0 mi WSW 3.5 mph - N/A   Clear
11:52 AM -14.1 °F -26.3 °F -18.9 °F 79% 30.29 in 10.0 mi West 4.6 mph - N/A   Clear
12:52 PM -9.9 °F - -16.1 °F 74% 30.30 in 10.0 mi Calm Calm - N/A   Clear
1:52 PM -9.0 °F - -15.0 °F 75% 30.30 in 10.0 mi Calm Calm - N/A   Clear
2:52 PM -6.0 °F - -13.0 °F 72% 30.29 in 10.0 mi Calm Calm - N/A   Clear
3:52 PM -9.0 °F - -14.1 °F 79% 30.30 in 10.0 mi Calm Calm - N/A   Clear
4:52 PM -14.1 °F - -20.0 °F 75% 30.31 in 10.0 mi Calm Calm - N/A   Clear
5:52 PM -16.1 °F -26.2 °F -20.9 °F 79% 30.30 in 10.0 mi North 3.5 mph - N/A   Clear
6:52 PM -18.0 °F - -24.0 °F 74% 30.31 in 10.0 mi Calm Calm - N/A   Clear
7:52 PM -18.9 °F - -24.0 °F 78% 30.31 in 10.0 mi Calm Calm - N/A   Clear
8:52 PM -18.9 °F - -24.0 °F 78% 30.30 in 10.0 mi Calm Calm - N/A   Clear
9:52 PM -20.0 °F - -26.0 °F 74% 30.30 in 10.0 mi Calm Calm - N/A   Clear
10:52 PM -20.0 °F - -27.0 °F 70% 30.31 in 10.0 mi Calm Calm - N/A   Clear
11:52 PM -20.9 °F - -27.0 °F 73% 30.30 in 10.0 mi Calm Calm - N/A   Clear